Location: Newark
(42.8481°N, 0.4872°E)
Time: 17:48:14
(UTC+00:00)

Vanguard 1 - Pass Details

Date: 31 October 2020
Orbit: 650 x 3833 km, 34.2° (Epoch: 23 November)

Event Time Altitude Azimuth Distance (km) Brightness Sun altitude
Rises 08:00:08 0° 170° (S) 6,315 14.9 13.6°
Reaches altitude 10° 08:07:46 10° 148° (SSE) 5,976 15.6 14.8°
Maximum altitude 08:15:39 14° 123° (ESE) 6,159 17.3 15.9°
Drops below altitude 10° 08:24:24 10° 100° (E) 6,840 15.6 17.2°
Sets 08:34:29 0° 80° (E) 7,971 15.3 18.6°
